This is the latest recevied weather packets stored in our database for station/object G4KVI. If no packets are shown the sender has not sent any weather packets the latest 10 day(s).
| Time | Temp. | Humidity | Pressure | Rain* | Wind** | Luminosity | Snow |
|---|---|---|---|---|---|---|---|
| 1788346804 | 17.78° C | 87% | 1020.2 hPa | 0 mm | - | 82 W/m² | - |
| 1788346504 | 17.78° C | 87% | 1020.4 hPa | 0 mm | - | 100 W/m² | - |
| 1788346204 | 17.78° C | 88% | 1020.3 hPa | 0 mm | - | 140 W/m² | - |
| 1788345904 | 17.78° C | 88% | 1020.2 hPa | 0 mm | - | 202 W/m² | - |
| 1788345604 | 17.78° C | 88% | 1020.3 hPa | 0 mm | - | 183 W/m² | - |
| 1788345304 | 17.78° C | 88% | 1020.1 hPa | 0 mm | - | 191 W/m² | - |
| 1788345004 | 17.78° C | 89% | 1020.4 hPa | 0 mm | - | 235 W/m² | - |
| 1788344704 | 17.78° C | 89% | 1020.4 hPa | 0 mm | - | 263 W/m² | - |
| 1788344404 | 17.22° C | 89% | 1020.3 hPa | 0 mm | - | 242 W/m² | - |
| 1788344104 | 17.22° C | 90% | 1020.2 hPa | 0 mm | - | 193 W/m² | - |
| 1788343804 | 17.22° C | 90% | 1020.3 hPa | 0 mm | - | 199 W/m² | - |
| 1788343504 | 17.22° C | 90% | 1020.4 hPa | 0.25 mm | - | 134 W/m² | - |
| 1788343204 | 17.22° C | 90% | 1020.5 hPa | 0.51 mm | - | 169 W/m² | - |
| 1788342904 | 16.67° C | 90% | 1020.6 hPa | 0.51 mm | - | 141 W/m² | - |
| 1788342604 | 16.67° C | 91% | 1020.6 hPa | 0.76 mm | - | 157 W/m² | - |
| 1788342304 | 16.67° C | 91% | 1020.7 hPa | 1.02 mm | - | 172 W/m² | - |
| 1788342004 | 16.67° C | 91% | 1020.7 hPa | 1.02 mm | - | 158 W/m² | - |
| 1788341704 | 16.67° C | 91% | 1020.7 hPa | 1.02 mm | - | 172 W/m² | - |
| 1788341404 | 16.67° C | 91% | 1020.6 hPa | 1.02 mm | - | 119 W/m² | - |
| 1788341104 | 16.67° C | 91% | 1020.7 hPa | 1.02 mm | - | 91 W/m² | - |
| 1788340804 | 16.67° C | 90% | 1020.8 hPa | 1.02 mm | - | 135 W/m² | - |
| 1788340504 | 16.67° C | 90% | 1020.7 hPa | 1.02 mm | - | 91 W/m² | - |
| 1788340204 | 16.67° C | 89% | 1020.9 hPa | 1.02 mm | - | 100 W/m² | - |
| 1788339904 | 17.22° C | 89% | 1021.1 hPa | 0.76 mm | - | 69 W/m² | - |
| 1788339604 | 17.22° C | 89% | 1021 hPa | 0.51 mm | - | 69 W/m² | - |
* Rain latest hour (hover to see other rain measurements)
** Current wind speed in m/s (hover to see current wind gust speed)